Weather History for KAFJ - February, 2014

Change the Weather History Date:

Monday, February 17, 2014

  Actual Average Record
Temperature  
Mean Temperature 13 °F -  
Max Temperature 33 °F 39 °F 64 °F (2011)
Min Temperature -7 °F 23 °F -7 °F (2014)
Degree Days  
Heating Degree Days 52    
Moisture  
Dew Point 8 °F    
Average Humidity 69    
Maximum Humidity 100    
Minimum Humidity 41    
Precipitation  
Precipitation 0.06 in - - ()
Sea Level Pressure  
Sea Level Pressure 30.16 in    
Wind  
Wind Speed 4 mph (ESE)    
Max Wind Speed 18 mph    
Max Gust Speed 26 mph    
Visibility 8 miles    
Events      
Averages and records for this station are not official NWS values.
T = Trace of Precipitation, MM = Missing Value Source: NWS Daily Summary

Daily Weather History Graph

Daily Weather History Graph

Search for Another Location

Airport or City:

Trip Planner

Search our weather history database for the weather conditions in past years. The results will help you decide how hot, cold, wet, or windy it might be!

Date:

Astronomy

Feb. 17, 2014 Rise Set
Actual Time 7:11 AM EST 5:59 PM EST
Civil Twilight 6:43 AM EST 6:26 PM EST
Nautical Twilight 6:12 AM EST 6:58 PM EST
Astronomical Twilight 5:40 AM EST 7:30 PM EST
Moon 8:52 PM EST (2/17) 8:11 AM EST (2/17)
Length of Visible Light 11h 43m
Length of Day
10h 47m
Waning Gibbous, 93% of the Moon is Illuminated
Feb 17
Waning Gibbous
Feb 22
Last Quarter
Mar 1
New
Mar 8
First Quarter
Mar 16
Full

Hourly Weather History & Observations

Time (EST) Temp. Windchill Dew Point Humidity Pressure Visibility Wind Dir Wind Speed Gust Speed Precip Events Conditions
12:15 AM 15.8 °F 10.2 °F 10.4 °F 79% 30.30 in 10.0 mi NNW 3.5 mph - N/A   Scattered Clouds
12:35 AM 12.2 °F 6.1 °F 5.0 °F 73% 30.30 in 10.0 mi NNW 3.5 mph - N/A   Overcast
12:55 AM 12.2 °F 6.1 °F 10.4 °F 92% 30.30 in 10.0 mi North 3.5 mph - N/A   Overcast
1:15 AM 12.2 °F - 10.4 °F 92% 30.31 in 10.0 mi Calm Calm - N/A   Overcast
1:35 AM 8.6 °F - 5.0 °F 85% 30.31 in 10.0 mi Calm Calm - N/A   Overcast
1:55 AM 8.6 °F - 5.0 °F 85% 30.31 in 8.0 mi Calm Calm - N/A   Scattered Clouds
2:15 AM 5.0 °F - 3.2 °F 92% 30.31 in 6.0 mi Calm Calm - N/A   Clear
2:35 AM 8.6 °F - 8.6 °F 100% 30.31 in 5.0 mi Calm Calm - N/A   Clear
2:55 AM 1.4 °F - -7.6 °F 66% 30.31 in 5.0 mi Calm Calm - N/A   Clear
3:15 AM 1.4 °F - 1.4 °F 100% 30.30 in 4.0 mi Calm Calm - N/A   Clear
3:35 AM 1.4 °F - -5.8 °F 72% 30.30 in 3.0 mi Calm Calm - N/A   Clear
3:55 AM 1.4 °F - -0.4 °F 92% 30.29 in 8.0 mi Calm Calm - N/A   Scattered Clouds
4:15 AM -0.4 °F - -9.4 °F 66% 30.30 in 5.0 mi Calm Calm - N/A   Mostly Cloudy
4:35 AM -2.2 °F - -2.2 °F 100% 30.29 in 7.0 mi Calm Calm - N/A   Scattered Clouds
4:55 AM -0.4 °F - -5.8 °F 78% 30.30 in 6.0 mi Calm Calm - N/A   Mostly Cloudy
5:15 AM -0.4 °F - -5.8 °F 78% 30.31 in 7.0 mi Calm Calm - N/A   Overcast
5:35 AM -2.2 °F - -7.6 °F 78% 30.32 in 7.0 mi Calm Calm - N/A   Mostly Cloudy
5:55 AM -4.0 °F - -5.8 °F 92% 30.33 in 8.0 mi Calm Calm - N/A   Clear
6:15 AM -2.2 °F - -7.6 °F 78% 30.34 in 8.0 mi Calm Calm - N/A   Clear
6:35 AM -7.6 °F - -9.4 °F 92% 30.34 in 8.0 mi Calm Calm - N/A   Clear
6:55 AM -2.2 °F - -7.6 °F 78% 30.35 in 9.0 mi Calm Calm - N/A   Clear
7:15 AM -5.8 °F - -9.4 °F 84% 30.35 in 5.0 mi Calm Calm - N/A   Partly Cloudy
7:35 AM -5.8 °F - -9.4 °F 84% 30.35 in 5.0 mi Calm Calm - N/A   Mostly Cloudy
7:55 AM -4.0 °F - -7.6 °F 85% 30.36 in 5.0 mi Calm Calm - N/A   Overcast
8:15 AM -2.2 °F - -5.8 °F 85% 30.37 in 7.0 mi Calm Calm - N/A   Partly Cloudy
8:35 AM -0.4 °F - -2.2 °F 92% 30.37 in 5.0 mi Calm Calm - N/A   Clear
8:55 AM 3.2 °F - 1.4 °F 92% 30.37 in 5.0 mi Calm Calm - N/A   Clear
9:15 AM 6.8 °F - -0.4 °F 72% 30.38 in 7.0 mi Calm Calm - N/A   Clear
9:35 AM 10.4 °F 2.2 °F 10.4 °F 100% 30.37 in 10.0 mi East 4.6 mph - N/A   Clear
9:55 AM 12.2 °F 1.7 °F 10.4 °F 92% 30.36 in 10.0 mi East 6.9 mph - N/A   Clear
10:15 AM 14.0 °F 6.5 °F 10.4 °F 86% 30.36 in 10.0 mi SE 4.6 mph - N/A   Clear
10:35 AM 17.6 °F 10.7 °F 8.6 °F 68% 30.35 in 10.0 mi SE 4.6 mph - N/A   Clear
10:55 AM 17.6 °F 9.3 °F 8.6 °F 68% 30.35 in 10.0 mi East 5.8 mph - N/A   Clear
11:15 AM 19.4 °F 10.4 °F 6.8 °F 58% 30.34 in 10.0 mi ESE 6.9 mph - N/A   Clear
11:35 AM 19.4 °F 10.4 °F 6.8 °F 58% 30.33 in 10.0 mi ESE 6.9 mph - N/A   Clear
11:55 AM 21.2 °F 13.6 °F 6.8 °F 54% 30.31 in 10.0 mi ESE 5.8 mph - N/A   Clear
12:15 PM 21.2 °F 13.6 °F 6.8 °F 54% 30.30 in 10.0 mi ESE 5.8 mph - N/A   Clear
12:35 PM 23.0 °F 17.0 °F 8.6 °F 54% 30.28 in 10.0 mi East 4.6 mph - N/A   Clear
12:55 PM 24.8 °F 15.3 °F 6.8 °F 46% 30.26 in 10.0 mi East 9.2 mph - N/A   Scattered Clouds
1:15 PM 24.8 °F 16.9 °F 8.6 °F 50% 30.23 in 10.0 mi East 6.9 mph - N/A   Overcast
1:35 PM 24.8 °F 14.6 °F 8.6 °F 50% 30.21 in 10.0 mi East 10.4 mph - N/A   Overcast
1:55 PM 26.6 °F 16.2 °F 10.4 °F 51% 30.18 in 10.0 mi East 11.5 mph - N/A   Overcast
2:15 PM 26.6 °F 15.7 °F 10.4 °F 51% 30.17 in 10.0 mi East 12.7 mph 16.1 mph N/A   Mostly Cloudy
2:35 PM 26.6 °F 16.8 °F 10.4 °F 51% 30.15 in 10.0 mi East 10.4 mph 17.3 mph N/A   Mostly Cloudy
2:55 PM 28.4 °F 19.1 °F 10.4 °F 47% 30.14 in 10.0 mi East 10.4 mph - N/A   Mostly Cloudy
3:15 PM 28.4 °F 19.7 °F 10.4 °F 47% 30.12 in 10.0 mi East 9.2 mph - N/A   Partly Cloudy
3:35 PM 28.4 °F 18.5 °F 10.4 °F 47% 30.11 in 10.0 mi East 11.5 mph - N/A   Scattered Clouds
3:55 PM 30.2 °F 23.4 °F 12.2 °F 47% 30.10 in 10.0 mi ENE 6.9 mph - N/A   Overcast
4:15 PM 30.2 °F 22.6 °F 12.2 °F 47% 30.08 in 10.0 mi ENE 8.1 mph - N/A   Overcast
4:35 PM 30.2 °F 21.3 °F 12.2 °F 47% 30.05 in 10.0 mi ENE 10.4 mph - N/A   Overcast
4:55 PM 30.2 °F 21.3 °F 12.2 °F 47% 30.03 in 10.0 mi ENE 10.4 mph - N/A   Overcast
5:15 PM 32.0 °F 24.8 °F 12.2 °F 44% 30.01 in 10.0 mi East 8.1 mph - N/A   Overcast
5:35 PM 33.8 °F 25.8 °F 12.2 °F 41% 29.99 in 10.0 mi East 10.4 mph - N/A   Overcast
5:55 PM 33.8 °F 25.3 °F 12.2 °F 41% 29.98 in 10.0 mi East 11.5 mph 18.4 mph N/A   Overcast
6:15 PM 33.8 °F 23.5 °F 12.2 °F 41% 29.94 in 10.0 mi East 16.1 mph 26.5 mph N/A   Overcast
6:35 PM 33.8 °F 25.3 °F 12.2 °F 41% 29.95 in 10.0 mi ESE 11.5 mph 17.3 mph N/A   Overcast
6:55 PM 32.0 °F 24.2 °F 12.2 °F 44% 29.93 in 10.0 mi ESE 9.2 mph - N/A   Overcast
7:15 PM 32.0 °F 24.8 °F 12.2 °F 44% 29.93 in 10.0 mi ESE 8.1 mph - N/A   Overcast
7:35 PM 32.0 °F 24.2 °F 12.2 °F 44% 29.91 in 10.0 mi ESE 9.2 mph - N/A   Overcast
7:55 PM 32.0 °F 23.6 °F 12.2 °F 44% 29.90 in 10.0 mi ESE 10.4 mph 19.6 mph N/A   Overcast
8:15 PM 32.0 °F 23.6 °F 12.2 °F 44% 29.90 in 10.0 mi ESE 10.4 mph 21.9 mph N/A   Overcast
8:35 PM 33.8 °F 25.3 °F 14.0 °F 44% 29.89 in 10.0 mi SE 11.5 mph 18.4 mph N/A   Mostly Cloudy
8:55 PM 33.8 °F 23.9 °F 14.0 °F 44% 29.88 in 10.0 mi SE 15.0 mph 20.7 mph N/A   Overcast
9:15 PM 28.4 °F 15.8 °F 24.8 °F 86% 29.87 in 2.5 mi SE 18.4 mph 23.0 mph 0.02 in   Overcast
9:35 PM 28.4 °F 18.0 °F 23.0 °F 80% 29.85 in 8.0 mi SE 12.7 mph 19.6 mph 0.03 in   Mostly Cloudy
9:55 PM 28.4 °F 17.5 °F 23.0 °F 80% 29.83 in 10.0 mi SE 13.8 mph 24.2 mph 0.04 in   Overcast
10:15 PM 28.4 °F 18.0 °F 24.8 °F 86% 29.83 in 10.0 mi SE 12.7 mph 24.2 mph 0.01 in   Overcast
10:35 PM 30.2 °F 21.3 °F 24.8 °F 80% 29.81 in 10.0 mi SE 10.4 mph - 0.02 in   Overcast
10:55 PM 30.2 °F 21.3 °F 26.6 °F 86% 29.79 in 10.0 mi SSE 10.4 mph 21.9 mph 0.02 in   Overcast
11:15 PM 30.2 °F 20.2 °F 26.6 °F 86% 29.79 in 10.0 mi SSE 12.7 mph 18.4 mph N/A   Overcast
11:35 PM 32.0 °F 23.6 °F 26.6 °F 80% 29.81 in 5.0 mi South 10.4 mph 18.4 mph N/A   Overcast
11:55 PM 32.0 °F 25.6 °F 28.4 °F 87% 29.82 in 2.0 mi South 6.9 mph - N/A   Overcast